Location: York
(31.8935°S, 116.7682°E)
Time: 09:04:36
(UTC+08:00)

N. Korean satellite - Pass Details

Date: 24 May 2021
Orbit: 450 x 500 km, 97.2° (Epoch: 13 June)

Event Time Altitude Azimuth Distance (km) Brightness Sun altitude
Rises 04:46:26 0° 16° (NNE) 2,501 10.5 -28.0°
Reaches altitude 10° 04:48:27 10° 18° (NNE) 1,641 9.5 -27.6°
Enters shadow 04:48:50 13° 18° (NNE) 1,483 9.3 -27.5°
